AirNav   Free Bose QuietComfort 20
 
 733 users online  

5M4 Fordyce Municipal Airport
Fordyce, Arkansas, USA

GOING TO FORDYCE?


FAA INFORMATION EFFECTIVE 05 DECEMBER 2019

Location

FAA Identifier: 5M4
Lat/Long: 33-50-44.8520N 092-21-55.9040W
33-50.747533N 092-21.931733W
33.8457922,-92.3655289
(estimated)
Elevation: 193 ft. / 59 m (estimated)
Variation: 04E (1985)
From city: 3 miles NE of FORDYCE, AR
Time zone: UTC -6 (UTC -5 during Daylight Saving Time)
Zip code: 71742

Airport Operations

Airport use: Open to the public
Activation date: 03/1967
Control tower: no
ARTCC: MEMPHIS CENTER
FSS: JONESBORO FLIGHT SERVICE STATION
NOTAMs facility: JBR (NOTAM-D service available)
Attendance: UNATNDD
Wind indicator: lighted
Segmented circle: no
Lights: DUSK-0100
Beacon: white-green (lighted land airport)
BCN OTS INDEFLY. Operates sunset to sunrise.

Airport Communications

CTAF: 122.9

Nearby radio navigation aids

VOR radial/distance  VOR name  Freq  Var
PBFr218/32.5PINE BLUFF VOR/DME116.0004E
MONr294/36.6MONTICELLO VOR/DME111.6004E

Airport Services

Fuel available: 100LL
FUEL AVBL 24 HR SELF SERVICE WITH CREDIT CARD.
Parking: tiedowns
Airframe service: NONE
Powerplant service: NONE
Bottled oxygen: NONE
Bulk oxygen: NONE

Runway Information

Runway 5/23

Dimensions: 3183 x 60 ft. / 970 x 18 m
Surface: asphalt, in good condition
Weight bearing capacity: 
Single wheel: 4.0
Runway edge lights: medium intensity
RUNWAY 5  RUNWAY 23
Latitude: 33-50.571450N33-50.923550N
Longitude: 092-22.164883W092-21.698600W
Elevation: 193.0 ft.186.0 ft.
Traffic pattern: leftleft
Runway heading: 044 magnetic, 048 true224 magnetic, 228 true
Markings: nonprecision, in fair conditionnonprecision, in fair condition
Obstructions: 60 ft. trees, 1100 ft. from runway, 15:1 slope to clear65 ft. trees, 850 ft. from runway, 315 ft. right of centerline, 10:1 slope to clear

Airport Ownership and Management from official FAA records

Ownership: Publicly-owned
Owner: CITY OF FORDYCE
101 SOUTH MAIN
FORDYCE, AR 71742
Phone 870-352-2198
Manager: JAMES H SMITH
PO BOX 132
FORDYCE, AR 71742
Phone 870-313-2870

Airport Operational Statistics

Aircraft based on the field: 2
Single engine airplanes: 2
    
Aircraft operations: avg 90/week *
85% local general aviation
15% transient general aviation
* for 12-month period ending 28 February 2019

Additional Remarks

PAY PHONE AVBL.
DEER & MIGRATORY BIRDS ON & INVOF ARPT.
FOR CD CTC MEMPHIS ARTCC AT 901-368-8453.

Instrument Procedures

There are no published instrument procedures at 5M4.

Some nearby airports with instrument procedures:

3M9 - Warren Municipal Airport (22 nm SE)
KCDH - Harrell Field Airport (24 nm SW)
9M8 - Sheridan Municipal Airport (29 nm N)
KPBF - Pine Bluff Regional Airport Grider Field (29 nm NE)
KLLQ - Monticello Municipal Airport/Ellis Field (33 nm E)
 
Loc | Ops | Rwys | IFR | FBO | Links
Com | Nav | Svcs | Stats | Notes
Area around 5M4 (Fordyce Municipal Airport)
 
Road maps at: MapQuest Bing Google
 
Aerial photo
WARNING: Photo may not be current or correct
Aerial photo of 5M4 (Fordyce Municipal Airport)
Photo courtesy of the Arkansas Department of Aeronautics
Taken in the Spring of 2007

Do you have a better or more recent aerial photo of Fordyce Municipal Airport that you would like to share? If so, please send us your photo.

 
Sectional chart

 
Airport distance calculator
Flying to Fordyce Municipal Airport? Find the distance to fly.

From to 5M4

Sunrise and sunset
Times for 06-Dec-2019
 Local
(UTC-6)
 Zulu
(UTC)
Morning civil twilight06:3412:34
Sunrise07:0213:02
Sunset16:5922:59
Evening civil twilight17:2723:27

Current date and time
Zulu (UTC)  06-Dec-2019 07:09:21
Local (UTC-6)  06-Dec-2019 01:09:21
 
METAR
KCDH 
24nm SW 
060655Z AUTO 15005KT 10SM OVC039 15/06 A2998 RMK AO2
KPBF 
30nm NE 
060653Z AUTO 17006KT 10SM SCT045 OVC060 13/05 A3000 RMK AO2 SLP158 T01330050
KLLQ 
33nm E 
060653Z AUTO VRB05KT 10SM FEW055 OVC110 13/05 A3002 RMK AO2 SLP164 T01330050
KADF 
38nm NW 
060656Z AUTO 00000KT 10SM -RA BKN037 BKN047 OVC055 11/10 A2998 RMK AO2 RAB54 SLP152 P0000 T01110100
KELD 
44nm SW 
060653Z AUTO 14003KT 10SM FEW039 13/09 A2999 RMK AO2 SLP153 T01330089
KSUZ 
45nm N 
060655Z AUTO 18004KT 10SM OVC037 13/05 A2998 RMK A01
TAF
KPBF 
30nm NE 
060532Z 0606/0706 15006KT P6SM VCSH SCT040 OVC100 FM061000 14005KT 6SM -SHRA BR SCT015 OVC040 TEMPO 0610/0614 4SM -TSRA BR BKN015CB FM061400 08005KT 3SM -RA BR OVC012 FM061700 36008KT 3SM BR OVC010 FM062100 01008KT 6SM BR SCT010 OVC040 FM070100 35007KT P6SM SCT040 BKN250
KLLQ 
33nm E 
060532Z 0606/0706 16006KT P6SM VCSH SCT050 OVC110 FM061000 14005KT 6SM -SHRA BR SCT015 OVC040 TEMPO 0610/0614 4SM -TSRA BR BKN015CB FM061400 08005KT 3SM -RA BR OVC012 FM061700 36008KT 3SM BR OVC010 FM062100 01008KT 6SM BR SCT010 OVC040 FM070100 35007KT P6SM SCT040 BKN250
NOTAMs
Click for the latest NOTAMs
NOTAMs are issued by the DoD/FAA and will open in a separate window not controlled by AirNav.

 

 
 

FBO, Fuel Providers, and Aircraft Ground Support

  
 Business Name 
 
 Contact 
 
 Services / Description 
 
Fuel Prices
 
Comments
  
H.L. Hopkins-Fordyce Municipal Airport 870-352-2419
no information available

If you are affiliated with H.L. Hopkins-Fordyce Municipal Airport and would like to show here your services, contact info, web link, logo, and more, click here
100LL
SS $3.80 
 Updated 22-Nov-2019
 
   2 read write
SS=Self service
Update Fuel Prices
 

Would you like to see your business listed on this page?

 If your business provides an interesting product or service to pilots, flight crews, aircraft, or users of the Fordyce Municipal Airport, you should consider listing it here.  To start the listing process, click on the button below
 
Add a business
 

Other Pages about Fordyce Municipal Airport

Update a link
 
Copyright © AirNav, LLC. All rights reserved. Privacy Policy  Contact